User: anonymous   Login
Location: Theydon Bois
(51.6750°N, 0.1050°E)
Time: 19:35:57
(UTC+00:00)
Language:

Timation 2 Rocket - Orbit

View from above orbital plane
View from above orbital plane
View from above satellite
View from above satellite

Ground track
Ground track

The orbit data is extracted from the following two-line orbital elements,

1 04159U 69082AB  18051.32795811 -.00000007  00000-0  44028-4 0  9995
2 04159  69.9642   5.6806 0113893 142.5666 218.3430 13.72390688422137
Epoch (UTC): 20 February 2018 07:52:15
Eccentricity: 0.0113893
inclination: 69.9642°
perigee height: 907 km
apogee height: 1075 km
right ascension of ascending node: 5.6806°
argument of perigee: 142.5666°
revolutions per day: 13.72390688
mean anomaly at epoch: 218.3430°
orbit number at epoch: 42213

The dashed part of the orbit path shows where the satellite is in the earth's shadow,  

DLR